User: anonymous   Login
Location: Unspecified
(0.0000°N, 0.0000°E)
Time: 07:58:25
(UTC+00:00)
Language:

USA 97 - Orbit

View from above orbital plane
View from above orbital plane
View from above satellite
View from above satellite

Ground track
Ground track

The orbit data is extracted from the following two-line orbital elements,

1 22915U 93074A   17125.87309400 0.00000000  00000-0  00000-0 0    02
2 22915  10.6429  38.6989 0009460 284.0060  75.9008  0.98530598    01
Epoch (UTC): 05 May 2017 20:57:15
Eccentricity: 0.0009460
inclination: 10.6429°
perigee height: 36241 km
apogee height: 36322 km
right ascension of ascending node: 38.6989°
argument of perigee: 284.0060°
revolutions per day: 0.98530598
mean anomaly at epoch: 75.9008°
orbit number at epoch: 0

The dashed part of the orbit path shows where the satellite is in the earth's shadow,  

DLR